CSZ9464 ZUCK-ZGSZ

Flight info

Callsign CSZ9464
Flight time 1h 54m
Altitude 31100
Route M078S0950 VILUS W180 LIDMA W182 LAGEX G586 SJG B330 POU W7 SAREX
Aircraft B738/M-SDE2E3FGHIRWZ/LB1

Departure

Time 2026-04-29 11:07
Airport Chongqing Jiangbei International Airport (ZUCK)

Arrival

Time 2026-04-29 13:01
Airport Shenzhen Bao'an International Airport (ZGSZ)
Time Latitude Longitude Altitude Speed Heading
2026-04-29 09:52 29.71656 106.65145 1350 ft 0 kts 267°
2026-04-29 10:49 29.71657 106.65163 1351 ft 2 kts 267°
2026-04-29 10:49 29.71658 106.65182 1351 ft 2 kts 268°
2026-04-29 10:50 29.71659 106.65201 1349 ft 2 kts 268°
2026-04-29 10:50 29.71655 106.65219 1351 ft 2 kts 303°
2026-04-29 10:50 29.71645 106.65234 1350 ft 2 kts 316°
2026-04-29 10:50 29.71636 106.65242 1350 ft 0 kts 329°
2026-04-29 10:56 29.71638 106.65241 1349 ft 1 kts 329°
2026-04-29 10:56 29.71648 106.65234 1350 ft 2 kts 333°
2026-04-29 10:56 29.71673 106.65227 1350 ft 5 kts 355°
2026-04-29 10:56 29.71708 106.65225 1349 ft 5 kts
2026-04-29 10:57 29.71743 106.65231 1349 ft 5 kts
2026-04-29 10:57 29.71784 106.65241 1351 ft 7 kts 15°
2026-04-29 10:57 29.71843 106.65261 1350 ft 10 kts 17°
2026-04-29 10:57 29.71906 106.65283 1351 ft 9 kts 17°
2026-04-29 10:58 29.71971 106.65305 1350 ft 10 kts 10°
2026-04-29 10:58 29.72018 106.65258 1349 ft 10 kts 285°
2026-04-29 10:58 29.72031 106.65208 1351 ft 10 kts 285°
2026-04-29 10:58 29.72049 106.65133 1352 ft 10 kts 285°
2026-04-29 10:59 29.72067 106.65060 1355 ft 9 kts 286°
2026-04-29 10:59 29.72091 106.64967 1353 ft 9 kts 287°
2026-04-29 10:59 29.72113 106.64887 1354 ft 11 kts 287°
2026-04-29 10:59 29.72138 106.64790 1356 ft 14 kts 287°
2026-04-29 11:00 29.72170 106.64666 1353 ft 18 kts 282°
2026-04-29 11:00 29.72188 106.64573 1354 ft 18 kts 287°
2026-04-29 11:00 29.72219 106.64489 1355 ft 9 kts 318°
2026-04-29 11:00 29.72281 106.64485 1357 ft 9 kts 15°
2026-04-29 11:01 29.72341 106.64504 1356 ft 9 kts 15°
2026-04-29 11:01 29.72400 106.64523 1356 ft 9 kts 15°
2026-04-29 11:01 29.72457 106.64541 1357 ft 8 kts 15°
2026-04-29 11:01 29.72512 106.64559 1356 ft 8 kts 16°
2026-04-29 11:02 29.72568 106.64578 1357 ft 9 kts 17°
2026-04-29 11:02 29.72626 106.64598 1357 ft 9 kts 17°
2026-04-29 11:02 29.72698 106.64624 1357 ft 13 kts 18°
2026-04-29 11:02 29.72795 106.64659 1358 ft 17 kts 16°
2026-04-29 11:03 29.72918 106.64703 1356 ft 19 kts 17°
2026-04-29 11:03 29.73001 106.64733 1356 ft 19 kts 17°
2026-04-29 11:03 29.73004 106.64733 1356 ft 19 kts 17°
2026-04-29 11:04 29.73118 106.64776 1357 ft 18 kts 15°
2026-04-29 11:04 29.73196 106.64795 1356 ft 7 kts 359°
2026-04-29 11:04 29.73234 106.64764 1355 ft 7 kts 295°
2026-04-29 11:04 29.73237 106.64752 1356 ft 0 kts 287°
2026-04-29 11:05 29.73237 106.64751 1356 ft 1 kts 287°
2026-04-29 11:05 29.73243 106.64727 1356 ft 6 kts 287°
2026-04-29 11:05 29.73261 106.64660 1359 ft 11 kts 286°
2026-04-29 11:05 29.73245 106.64618 1358 ft 5 kts 220°
2026-04-29 11:06 29.73212 106.64601 1359 ft 5 kts 195°
2026-04-29 11:06 29.73177 106.64589 1360 ft 5 kts 197°
2026-04-29 11:06 29.73129 106.64573 1358 ft 13 kts 197°
2026-04-29 11:06 29.72827 106.64468 1360 ft 80 kts 197°
2026-04-29 11:07 29.72090 106.64212 1359 ft 139 kts 196°
2026-04-29 11:07 29.71008 106.63844 1500 ft 176 kts 196°
2026-04-29 11:07 29.69872 106.63454 2400 ft 168 kts 195°
2026-04-29 11:07 29.68737 106.63046 3138 ft 168 kts 195°
2026-04-29 11:08 29.67663 106.62656 3830 ft 160 kts 195°
2026-04-29 11:08 29.66555 106.62274 4118 ft 170 kts 195°
2026-04-29 11:08 29.65420 106.61877 4648 ft 173 kts 194°
2026-04-29 11:08 29.64205 106.61476 4923 ft 189 kts 194°
2026-04-29 11:09 29.62907 106.61046 5135 ft 204 kts 195°
2026-04-29 11:09 29.61480 106.60555 5250 ft 224 kts 196°
2026-04-29 11:09 29.59914 106.60014 5418 ft 246 kts 196°
2026-04-29 11:09 29.58224 106.59429 5857 ft 259 kts 196°
2026-04-29 11:10 29.56474 106.58824 6493 ft 265 kts 197°
2026-04-29 11:10 29.54689 106.58207 7151 ft 269 kts 197°
2026-04-29 11:10 29.52882 106.57584 7802 ft 273 kts 197°
2026-04-29 11:10 29.51053 106.56953 8518 ft 275 kts 197°
2026-04-29 11:11 29.49206 106.56317 9194 ft 279 kts 197°
2026-04-29 11:11 29.47327 106.55671 9825 ft 285 kts 197°
2026-04-29 11:11 29.45433 106.55019 10381 ft 291 kts 197°
2026-04-29 11:11 29.43367 106.54643 10517 ft 314 kts 175°
2026-04-29 11:12 29.41243 106.55453 10685 ft 336 kts 147°
2026-04-29 11:12 29.39489 106.57331 10893 ft 354 kts 133°
2026-04-29 11:12 29.37839 106.59478 11323 ft 363 kts 131°
2026-04-29 11:12 29.36180 106.61682 11886 ft 367 kts 131°
2026-04-29 11:13 29.34498 106.63909 12456 ft 371 kts 132°
2026-04-29 11:13 29.32782 106.66157 12992 ft 377 kts 133°
2026-04-29 11:13 29.31032 106.68428 13542 ft 382 kts 133°
2026-04-29 11:13 29.29252 106.70722 14076 ft 387 kts 133°
2026-04-29 11:14 29.27445 106.73041 14566 ft 392 kts 133°
2026-04-29 11:14 29.25617 106.75383 15094 ft 396 kts 133°
2026-04-29 11:14 29.23794 106.77714 15633 ft 400 kts 133°
2026-04-29 11:14 29.21925 106.80104 16187 ft 404 kts 133°
2026-04-29 11:15 29.20039 106.82513 16711 ft 408 kts 133°
2026-04-29 11:15 29.18131 106.84951 17206 ft 413 kts 133°
2026-04-29 11:15 29.16199 106.87419 17714 ft 418 kts 133°
2026-04-29 11:15 29.14249 106.89905 18199 ft 423 kts 133°
2026-04-29 11:16 29.12265 106.92418 18633 ft 427 kts 135°
2026-04-29 11:16 29.09919 106.94483 19051 ft 426 kts 156°
2026-04-29 11:16 29.07140 106.95556 19525 ft 420 kts 174°
2026-04-29 11:16 29.04243 106.95739 20017 ft 416 kts 185°
2026-04-29 11:17 29.01377 106.95675 20470 ft 418 kts 186°
2026-04-29 11:17 28.98462 106.95598 20952 ft 420 kts 186°
2026-04-29 11:17 28.95520 106.95525 21440 ft 422 kts 186°
2026-04-29 11:17 28.92577 106.95464 21921 ft 424 kts 186°
2026-04-29 11:18 28.89615 106.95418 22259 ft 428 kts 186°
2026-04-29 11:18 28.86643 106.95358 22645 ft 428 kts 186°
2026-04-29 11:18 28.83654 106.95382 23063 ft 430 kts 187°
2026-04-29 11:18 28.80649 106.95344 23391 ft 433 kts 187°
2026-04-29 11:19 28.77624 106.95291 23778 ft 435 kts 187°
2026-04-29 11:19 28.74594 106.95242 24177 ft 436 kts 187°
2026-04-29 11:19 28.71555 106.95201 24587 ft 436 kts 188°
2026-04-29 11:19 28.68556 106.95166 25008 ft 436 kts 188°
2026-04-29 11:20 28.65478 106.95129 25299 ft 440 kts 188°
2026-04-29 11:20 28.62406 106.95092 25529 ft 444 kts 188°
2026-04-29 11:20 28.59306 106.95054 25848 ft 446 kts 187°
2026-04-29 11:20 28.56242 106.95025 26190 ft 447 kts 187°
2026-04-29 11:21 28.53123 106.94983 26425 ft 449 kts 188°
2026-04-29 11:21 28.49995 106.94936 26715 ft 451 kts 188°
2026-04-29 11:21 28.46830 106.94895 27005 ft 453 kts 188°
2026-04-29 11:21 28.43668 106.94856 27261 ft 455 kts 187°
2026-04-29 11:22 28.40494 106.94824 27511 ft 457 kts 187°
2026-04-29 11:22 28.37297 106.94792 27778 ft 460 kts 187°
2026-04-29 11:22 28.34078 106.94755 28035 ft 463 kts 187°
2026-04-29 11:22 28.30854 106.94716 28324 ft 464 kts 187°
2026-04-29 11:23 28.27667 106.94677 28711 ft 462 kts 187°
2026-04-29 11:23 28.24465 106.94644 29216 ft 459 kts 187°
2026-04-29 11:23 28.21254 106.94712 29534 ft 463 kts 185°
2026-04-29 11:23 28.18020 106.94896 29813 ft 466 kts 184°
2026-04-29 11:24 28.14775 106.95117 30115 ft 467 kts 184°
2026-04-29 11:24 28.11529 106.95331 30425 ft 467 kts 184°
2026-04-29 11:24 28.08290 106.95518 30659 ft 467 kts 185°
2026-04-29 11:24 28.05040 106.95697 30861 ft 468 kts 184°
2026-04-29 11:25 28.01792 106.95869 31142 ft 467 kts 185°
2026-04-29 11:25 27.98530 106.96023 31272 ft 470 kts 185°
2026-04-29 11:25 27.95284 106.96172 31265 ft 473 kts 185°
2026-04-29 11:26 27.85457 106.96676 31259 ft 470 kts 185°
2026-04-29 11:26 27.78897 106.97070 31277 ft 472 kts 185°
2026-04-29 11:27 27.72317 106.97466 31280 ft 475 kts 185°
2026-04-29 11:27 27.65747 106.97855 31273 ft 476 kts 184°
2026-04-29 11:28 27.59098 106.98247 31238 ft 477 kts 185°
2026-04-29 11:28 27.52474 106.98579 31266 ft 475 kts 186°
2026-04-29 11:29 27.45864 106.98787 31264 ft 475 kts 185°
2026-04-29 11:29 27.39300 106.99122 31259 ft 475 kts 185°
2026-04-29 11:30 27.33129 106.99473 31274 ft 474 kts 185°
2026-04-29 11:30 27.26537 106.99857 31281 ft 474 kts 185°
2026-04-29 11:31 27.19952 107.00213 31279 ft 474 kts 185°
2026-04-29 11:31 27.13357 107.00567 31278 ft 474 kts 185°
2026-04-29 11:32 27.06774 107.00917 31273 ft 474 kts 185°
2026-04-29 11:32 27.00183 107.01329 31243 ft 478 kts 178°
2026-04-29 11:33 26.96963 107.02471 31277 ft 495 kts 156°
2026-04-29 11:33 26.94127 107.04768 31290 ft 510 kts 137°
2026-04-29 11:33 26.91938 107.07851 31279 ft 517 kts 120°
2026-04-29 11:33 26.90569 107.11571 31293 ft 517 kts 105°
2026-04-29 11:34 26.88720 107.19353 31277 ft 518 kts 103°
2026-04-29 11:34 26.86854 107.27153 31268 ft 518 kts 104°
2026-04-29 11:35 26.84881 107.34902 31282 ft 516 kts 105°
2026-04-29 11:35 26.82898 107.42617 31285 ft 515 kts 105°
2026-04-29 11:36 26.80935 107.50325 31286 ft 515 kts 105°
2026-04-29 11:36 26.78988 107.58000 31278 ft 515 kts 105°
2026-04-29 11:37 26.77012 107.65702 31280 ft 515 kts 106°
2026-04-29 11:37 26.75007 107.73391 31291 ft 514 kts 106°
2026-04-29 11:38 26.73003 107.81086 31284 ft 514 kts 106°
2026-04-29 11:38 26.71006 107.88760 31272 ft 514 kts 106°
2026-04-29 11:39 26.69022 107.96368 31282 ft 513 kts 106°
2026-04-29 11:39 26.67019 108.04030 31275 ft 513 kts 106°
2026-04-29 11:40 26.65011 108.11694 31275 ft 513 kts 106°
2026-04-29 11:40 26.63001 108.19345 31282 ft 513 kts 106°
2026-04-29 11:41 26.60987 108.26994 31277 ft 512 kts 106°
2026-04-29 11:41 26.58972 108.34629 31276 ft 513 kts 106°
2026-04-29 11:42 26.57037 108.42298 31277 ft 513 kts 104°
2026-04-29 11:42 26.55291 108.49981 31283 ft 512 kts 104°
2026-04-29 11:43 26.53537 108.57703 31291 ft 512 kts 104°
2026-04-29 11:43 26.51752 108.65400 31265 ft 512 kts 104°
2026-04-29 11:44 26.49962 108.73054 31282 ft 510 kts 105°
2026-04-29 11:44 26.48163 108.80714 31290 ft 511 kts 105°
2026-04-29 11:45 26.46370 108.88343 31279 ft 512 kts 105°
2026-04-29 11:45 26.44557 108.96039 31283 ft 512 kts 106°
2026-04-29 11:46 26.43335 108.99759 31265 ft 510 kts 119°
2026-04-29 11:46 26.41498 109.03114 31286 ft 504 kts 130°
2026-04-29 11:46 26.39207 109.06045 31275 ft 499 kts 141°
2026-04-29 11:46 26.36527 109.08484 31290 ft 494 kts 148°
2026-04-29 11:47 26.31959 109.12306 31272 ft 495 kts 148°
2026-04-29 11:47 26.25583 109.17732 31266 ft 496 kts 147°
2026-04-29 11:48 26.20145 109.22451 31258 ft 495 kts 147°
2026-04-29 11:48 26.15621 109.26375 31261 ft 495 kts 147°
2026-04-29 11:49 26.10273 109.31220 31259 ft 495 kts 145°
2026-04-29 11:49 26.04968 109.36116 31265 ft 495 kts 146°
2026-04-29 11:50 25.99647 109.40997 31250 ft 496 kts 146°
2026-04-29 11:50 25.94302 109.45870 31248 ft 496 kts 146°
2026-04-29 11:51 25.88962 109.50728 31267 ft 496 kts 146°
2026-04-29 11:51 25.83654 109.55558 31242 ft 496 kts 146°
2026-04-29 11:52 25.78310 109.60414 31229 ft 496 kts 146°
2026-04-29 11:52 25.73171 109.65576 31232 ft 499 kts 141°
2026-04-29 11:53 25.68181 109.70950 31233 ft 500 kts 141°
2026-04-29 11:53 25.63181 109.76317 31228 ft 500 kts 141°
2026-04-29 11:54 25.58151 109.81634 31238 ft 498 kts 142°
2026-04-29 11:54 25.53153 109.86904 31242 ft 499 kts 142°
2026-04-29 11:55 25.48113 109.92215 31233 ft 500 kts 142°
2026-04-29 11:55 25.43074 109.97518 31225 ft 499 kts 141°
2026-04-29 11:56 25.38050 110.02784 31234 ft 496 kts 141°
2026-04-29 11:56 25.33045 110.08047 31220 ft 496 kts 141°
2026-04-29 11:57 25.28070 110.13266 31205 ft 495 kts 141°
2026-04-29 11:57 25.23062 110.18511 31205 ft 495 kts 141°
2026-04-29 11:58 25.18064 110.23752 31213 ft 495 kts 141°
2026-04-29 11:58 25.13127 110.28984 31212 ft 495 kts 141°
2026-04-29 11:59 25.08159 110.34249 31205 ft 494 kts 141°
2026-04-29 11:59 25.03216 110.39473 31211 ft 493 kts 141°
2026-04-29 12:00 24.98260 110.44703 31200 ft 493 kts 141°
2026-04-29 12:00 24.93305 110.49941 31216 ft 493 kts 141°
2026-04-29 12:01 24.88383 110.55145 31200 ft 492 kts 141°
2026-04-29 12:01 24.83442 110.60358 31202 ft 492 kts 141°
2026-04-29 12:02 24.78524 110.65541 31197 ft 492 kts 141°
2026-04-29 12:02 24.73590 110.70739 31194 ft 490 kts 142°
2026-04-29 12:03 24.68653 110.75928 31203 ft 490 kts 141°
2026-04-29 12:03 24.63742 110.81132 31198 ft 490 kts 141°
2026-04-29 12:04 24.58878 110.86389 31195 ft 490 kts 141°
2026-04-29 12:04 24.54055 110.91599 31203 ft 489 kts 141°
2026-04-29 12:05 24.49185 110.96840 31195 ft 490 kts 141°
2026-04-29 12:05 24.44328 111.02055 31189 ft 490 kts 141°
2026-04-29 12:06 24.39450 111.07284 31186 ft 490 kts 141°
2026-04-29 12:06 24.34578 111.12505 31186 ft 490 kts 141°
2026-04-29 12:07 24.29704 111.17723 31174 ft 489 kts 141°
2026-04-29 12:07 24.27258 111.20337 30890 ft 492 kts 141°
2026-04-29 12:07 24.24805 111.22960 30542 ft 491 kts 141°
2026-04-29 12:08 24.22341 111.25553 30209 ft 488 kts 144°
2026-04-29 12:08 24.19712 111.27786 29800 ft 482 kts 153°
2026-04-29 12:08 24.16808 111.29559 29421 ft 476 kts 160°
2026-04-29 12:08 24.13801 111.31201 29179 ft 477 kts 160°
2026-04-29 12:09 24.07875 111.34416 29132 ft 478 kts 159°
2026-04-29 12:09 24.01960 111.37681 29164 ft 478 kts 159°
2026-04-29 12:10 23.96002 111.40994 29147 ft 482 kts 159°
2026-04-29 12:10 23.90013 111.44335 29118 ft 484 kts 159°
2026-04-29 12:11 23.84017 111.47673 29147 ft 483 kts 159°
2026-04-29 12:11 23.78017 111.51018 29136 ft 483 kts 159°
2026-04-29 12:12 23.72041 111.54340 29133 ft 481 kts 159°
2026-04-29 12:12 23.66081 111.57648 29128 ft 480 kts 159°
2026-04-29 12:13 23.60159 111.60931 29121 ft 479 kts 159°
2026-04-29 12:13 23.54222 111.64220 29115 ft 478 kts 159°
2026-04-29 12:14 23.48303 111.67497 29130 ft 477 kts 159°
2026-04-29 12:14 23.42400 111.70762 28905 ft 470 kts 159°
2026-04-29 12:15 23.39521 111.72357 28631 ft 460 kts 159°
2026-04-29 12:15 23.36694 111.73921 28370 ft 450 kts 159°
2026-04-29 12:15 23.33924 111.75457 28101 ft 441 kts 159°
2026-04-29 12:15 23.31234 111.76938 27858 ft 436 kts 159°
2026-04-29 12:16 23.28526 111.78427 27614 ft 437 kts 159°
2026-04-29 12:16 23.25815 111.79919 27362 ft 437 kts 159°
2026-04-29 12:16 23.23180 111.81581 27085 ft 444 kts 146°
2026-04-29 12:16 23.21081 111.84107 26855 ft 454 kts 126°
2026-04-29 12:17 23.19745 111.87228 26609 ft 460 kts 107°
2026-04-29 12:17 23.18998 111.90618 26413 ft 459 kts 104°
2026-04-29 12:17 23.18333 111.94011 26142 ft 457 kts 103°
2026-04-29 12:17 23.17695 111.97339 25742 ft 455 kts 103°
2026-04-29 12:18 23.17041 112.00691 25332 ft 452 kts 103°
2026-04-29 12:18 23.16376 112.04015 24907 ft 449 kts 104°
2026-04-29 12:18 23.15699 112.07320 24450 ft 448 kts 104°
2026-04-29 12:18 23.15013 112.10621 23997 ft 446 kts 104°
2026-04-29 12:19 23.14327 112.13901 23549 ft 444 kts 104°
2026-04-29 12:19 23.13642 112.17161 23053 ft 442 kts 104°
2026-04-29 12:19 23.12961 112.20402 22589 ft 438 kts 104°
2026-04-29 12:19 23.12284 112.23620 22128 ft 434 kts 104°
2026-04-29 12:20 23.11614 112.26808 21704 ft 431 kts 104°
2026-04-29 12:20 23.10947 112.29976 21277 ft 428 kts 104°
2026-04-29 12:20 23.10286 112.33114 20841 ft 425 kts 104°
2026-04-29 12:20 23.09636 112.36195 20435 ft 422 kts 104°
2026-04-29 12:21 23.08981 112.39296 19987 ft 420 kts 104°
2026-04-29 12:21 23.08329 112.42384 19584 ft 417 kts 104°
2026-04-29 12:21 23.07681 112.45449 19159 ft 415 kts 104°
2026-04-29 12:21 23.07048 112.48507 18735 ft 414 kts 102°
2026-04-29 12:22 23.06682 112.51588 18451 ft 408 kts 95°
2026-04-29 12:22 23.06477 112.54649 18118 ft 403 kts 94°
2026-04-29 12:22 23.06309 112.57666 17810 ft 397 kts 94°
2026-04-29 12:22 23.06147 112.60611 17523 ft 391 kts 94°
2026-04-29 12:23 23.05977 112.63545 17248 ft 388 kts 94°
2026-04-29 12:23 23.05795 112.66456 16969 ft 384 kts 94°
2026-04-29 12:23 23.05607 112.69342 16711 ft 381 kts 95°
2026-04-29 12:23 23.05416 112.72202 16438 ft 381 kts 95°
2026-04-29 12:24 23.05221 112.75079 16187 ft 383 kts 95°
2026-04-29 12:24 23.05024 112.77972 15916 ft 385 kts 95°
2026-04-29 12:24 23.04826 112.80862 15639 ft 382 kts 95°
2026-04-29 12:24 23.04629 112.83730 15372 ft 380 kts 95°
2026-04-29 12:25 23.04432 112.86590 15090 ft 378 kts 95°
2026-04-29 12:25 23.04238 112.89401 14838 ft 377 kts 95°
2026-04-29 12:25 23.03846 112.95058 14313 ft 374 kts 95°
2026-04-29 12:26 23.03651 112.97867 14044 ft 372 kts 95°
2026-04-29 12:26 23.03456 113.00663 13772 ft 371 kts 95°
2026-04-29 12:26 23.03261 113.03456 13466 ft 370 kts 95°
2026-04-29 12:26 23.03067 113.06236 13207 ft 368 kts 95°
2026-04-29 12:27 23.02873 113.08992 12941 ft 365 kts 95°
2026-04-29 12:27 23.02683 113.11701 12669 ft 363 kts 95°
2026-04-29 12:27 23.02490 113.14435 12418 ft 361 kts 95°
2026-04-29 12:27 23.02295 113.17143 12171 ft 359 kts 97°
2026-04-29 12:28 23.01784 113.19776 11905 ft 355 kts 111°
2026-04-29 12:28 23.00749 113.22188 11676 ft 351 kts 120°
2026-04-29 12:28 22.99611 113.24526 11425 ft 349 kts 120°
2026-04-29 12:28 22.98469 113.26854 11179 ft 348 kts 120°
2026-04-29 12:29 22.97340 113.29173 10935 ft 347 kts 120°
2026-04-29 12:29 22.96223 113.31487 10685 ft 346 kts 120°
2026-04-29 12:29 22.95126 113.33772 10439 ft 343 kts 120°
2026-04-29 12:29 22.94038 113.36049 10195 ft 337 kts 119°
2026-04-29 12:30 22.92970 113.38287 9959 ft 332 kts 119°
2026-04-29 12:30 22.91930 113.40465 9946 ft 318 kts 120°
2026-04-29 12:30 22.90914 113.42590 9573 ft 319 kts 120°
2026-04-29 12:30 22.89898 113.44713 9303 ft 315 kts 120°
2026-04-29 12:31 22.88665 113.46616 9038 ft 305 kts 142°
2026-04-29 12:31 22.86890 113.47741 8843 ft 290 kts 165°
2026-04-29 12:31 22.84953 113.48116 8642 ft 280 kts 184°
2026-04-29 12:31 22.83003 113.47998 8458 ft 277 kts 188°
2026-04-29 12:32 22.81079 113.47834 8252 ft 277 kts 188°
2026-04-29 12:32 22.79160 113.47676 8058 ft 276 kts 188°
2026-04-29 12:32 22.77242 113.47527 7864 ft 276 kts 187°
2026-04-29 12:32 22.75969 113.47430 7741 ft 276 kts 187°
2026-04-29 12:33 22.73423 113.47239 7478 ft 277 kts 187°
2026-04-29 12:33 22.71504 113.47096 7278 ft 277 kts 187°
2026-04-29 12:33 22.69575 113.46953 7091 ft 278 kts 187°
2026-04-29 12:33 22.67643 113.46810 6885 ft 278 kts 187°
2026-04-29 12:34 22.65713 113.46667 6690 ft 278 kts 187°
2026-04-29 12:34 22.64439 113.46573 6550 ft 277 kts 187°
2026-04-29 12:34 22.62510 113.46430 6361 ft 277 kts 187°
2026-04-29 12:34 22.60593 113.46299 6152 ft 275 kts 183°
2026-04-29 12:35 22.58731 113.46740 5923 ft 277 kts 154°
2026-04-29 12:35 22.57250 113.48052 5733 ft 277 kts 130°
2026-04-29 12:35 22.55966 113.50410 5482 ft 272 kts 120°
2026-04-29 12:35 22.55099 113.52209 5279 ft 268 kts 120°
2026-04-29 12:36 22.54516 113.53407 5158 ft 264 kts 120°
2026-04-29 12:36 22.53662 113.55144 4988 ft 259 kts 120°
2026-04-29 12:36 22.52823 113.56839 4867 ft 252 kts 120°
2026-04-29 12:36 22.51989 113.58497 4689 ft 247 kts 120°
2026-04-29 12:37 22.51173 113.60115 4525 ft 244 kts 119°
2026-04-29 12:37 22.50371 113.61702 4441 ft 235 kts 119°
2026-04-29 12:37 22.49611 113.63206 4265 ft 227 kts 119°
2026-04-29 12:37 22.48865 113.64680 4132 ft 222 kts 118°
2026-04-29 12:38 22.48231 113.66180 4000 ft 215 kts 107°
2026-04-29 12:38 22.47774 113.67693 3884 ft 210 kts 106°
2026-04-29 12:38 22.47311 113.69182 3777 ft 208 kts 106°
2026-04-29 12:38 22.46845 113.70663 3672 ft 208 kts 106°
2026-04-29 12:39 22.46373 113.72140 3541 ft 208 kts 104°
2026-04-29 12:39 22.45902 113.73618 3440 ft 207 kts 105°
2026-04-29 12:39 22.45436 113.75065 3337 ft 207 kts 107°
2026-04-29 12:39 22.45170 113.75886 3263 ft 207 kts 107°
2026-04-29 12:40 22.45161 113.75913 3256 ft 207 kts 107°
2026-04-29 12:40 22.44677 113.77394 3132 ft 206 kts 106°
2026-04-29 12:40 22.44366 113.78874 2996 ft 199 kts 80°
2026-04-29 12:40 22.44853 113.80216 2932 ft 192 kts 57°
2026-04-29 12:41 22.45489 113.81481 2835 ft 191 kts 60°
2026-04-29 12:41 22.46058 113.82681 2729 ft 184 kts 59°
2026-04-29 12:42 22.46529 113.83681 2632 ft 183 kts 59°
2026-04-29 12:42 22.46621 113.83879 2614 ft 183 kts 60°
2026-04-29 12:42 22.47115 113.84926 2529 ft 180 kts 58°
2026-04-29 12:43 22.47936 113.85892 2374 ft 177 kts 30°
2026-04-29 12:43 22.49081 113.86307 2306 ft 178 kts
2026-04-29 12:43 22.50292 113.86120 2219 ft 177 kts 340°
2026-04-29 12:43 22.51392 113.85531 2138 ft 176 kts 338°
2026-04-29 12:44 22.52494 113.84944 2022 ft 178 kts 340°
2026-04-29 12:44 22.53612 113.84348 1922 ft 180 kts 339°
2026-04-29 12:44 22.54734 113.83747 1836 ft 178 kts 339°
2026-04-29 12:44 22.55834 113.83150 1810 ft 175 kts 339°
2026-04-29 12:45 22.56916 113.82561 1777 ft 175 kts 340°
2026-04-29 12:45 22.58049 113.81943 1297 ft 188 kts 336°
2026-04-29 12:45 22.59197 113.81286 1154 ft 175 kts 337°
2026-04-29 12:45 22.60202 113.80727 1375 ft 156 kts 338°
2026-04-29 12:46 22.61175 113.80163 1577 ft 168 kts 338°
2026-04-29 12:46 22.62228 113.79551 2353 ft 178 kts 337°
2026-04-29 12:46 22.63399 113.78878 2941 ft 199 kts 332°
2026-04-29 12:46 22.64441 113.77762 3365 ft 227 kts 304°
2026-04-29 12:47 22.65285 113.76287 3963 ft 237 kts 304°
2026-04-29 12:47 22.66194 113.74757 3907 ft 241 kts 305°
2026-04-29 12:47 22.67093 113.73240 3898 ft 235 kts 306°
2026-04-29 12:47 22.67971 113.71765 3907 ft 231 kts 306°
2026-04-29 12:48 22.68835 113.70309 3902 ft 228 kts 306°
2026-04-29 12:48 22.69677 113.68843 3907 ft 229 kts 299°
2026-04-29 12:48 22.69962 113.67126 3927 ft 240 kts 266°
2026-04-29 12:48 22.69376 113.65437 3902 ft 248 kts 234°
2026-04-29 12:49 22.68077 113.64187 3909 ft 253 kts 211°
2026-04-29 12:49 22.66522 113.63296 3902 ft 254 kts 208°
2026-04-29 12:49 22.64934 113.62471 3922 ft 252 kts 204°
2026-04-29 12:49 22.63353 113.61655 3907 ft 251 kts 207°
2026-04-29 12:50 22.61814 113.60839 3898 ft 247 kts 207°
2026-04-29 12:50 22.60281 113.60015 3894 ft 245 kts 208°
2026-04-29 12:50 22.58753 113.59189 3901 ft 245 kts 207°
2026-04-29 12:50 22.57251 113.58377 3927 ft 235 kts 208°
2026-04-29 12:51 22.55812 113.57596 3895 ft 228 kts 209°
2026-04-29 12:51 22.54312 113.57109 3878 ft 227 kts 179°
2026-04-29 12:51 22.52840 113.57581 3782 ft 222 kts 144°
2026-04-29 12:51 22.51806 113.58777 3571 ft 217 kts 119°
2026-04-29 12:52 22.51075 113.60194 3359 ft 213 kts 116°
2026-04-29 12:52 22.50383 113.61594 3139 ft 208 kts 114°
2026-04-29 12:52 22.49707 113.62954 2903 ft 203 kts 114°
2026-04-29 12:52 22.49034 113.64297 2700 ft 204 kts 114°
2026-04-29 12:53 22.48422 113.65630 2616 ft 196 kts 105°
2026-04-29 12:53 22.47976 113.67003 2565 ft 192 kts 104°
2026-04-29 12:53 22.47553 113.68375 2553 ft 194 kts 105°
2026-04-29 12:53 22.47118 113.69772 2551 ft 198 kts 105°
2026-04-29 12:54 22.46670 113.71191 2526 ft 200 kts 104°
2026-04-29 12:54 22.46219 113.72607 2495 ft 198 kts 104°
2026-04-29 12:54 22.45765 113.74023 2401 ft 204 kts 105°
2026-04-29 12:54 22.45296 113.75482 2347 ft 205 kts 103°
2026-04-29 12:55 22.44839 113.76899 2295 ft 197 kts 103°
2026-04-29 12:55 22.44420 113.78285 2289 ft 190 kts 95°
2026-04-29 12:55 22.44629 113.79629 2336 ft 183 kts 58°
2026-04-29 12:55 22.45236 113.80889 2314 ft 190 kts 60°
2026-04-29 12:56 22.45828 113.82163 2288 ft 188 kts 60°
2026-04-29 12:56 22.46411 113.83413 2298 ft 184 kts 60°
2026-04-29 12:56 22.46988 113.84640 2308 ft 185 kts 60°
2026-04-29 12:56 22.47624 113.85855 2283 ft 186 kts 46°
2026-04-29 12:57 22.48720 113.86491 2298 ft 181 kts
2026-04-29 12:57 22.49958 113.86333 2201 ft 180 kts 341°
2026-04-29 12:57 22.51068 113.85736 2129 ft 178 kts 338°
2026-04-29 12:57 22.52180 113.85139 2012 ft 177 kts 339°
2026-04-29 12:58 22.53296 113.84538 1901 ft 181 kts 339°
2026-04-29 12:58 22.53884 113.84219 1859 ft 181 kts 339°
2026-04-29 12:58 22.54998 113.83612 1788 ft 179 kts 339°
2026-04-29 12:58 22.56102 113.83010 1535 ft 173 kts 339°
2026-04-29 12:59 22.57132 113.82443 1347 ft 156 kts 340°
2026-04-29 12:59 22.58044 113.81942 1107 ft 144 kts 341°
2026-04-29 12:59 22.58937 113.81458 946 ft 146 kts 339°
2026-04-29 12:59 22.59866 113.80954 766 ft 151 kts 338°
2026-04-29 13:00 22.60807 113.80449 625 ft 152 kts 336°
2026-04-29 13:00 22.61750 113.79907 393 ft 154 kts 338°
2026-04-29 13:00 22.62699 113.79390 136 ft 153 kts 336°
2026-04-29 13:00 22.63629 113.78883 15 ft 141 kts 333°
2026-04-29 13:01 22.64402 113.78459 15 ft 108 kts 334°
2026-04-29 13:01 22.64964 113.78152 15 ft 73 kts 335°
2026-04-29 13:01 22.65304 113.77962 15 ft 35 kts 333°
2026-04-29 13:01 22.65456 113.77880 15 ft 9 kts 336°
2026-04-29 13:02 22.65499 113.77891 15 ft 7 kts 53°
2026-04-29 13:02 22.65523 113.77941 15 ft 8 kts 62°
2026-04-29 13:02 22.65552 113.78001 15 ft 10 kts 62°
2026-04-29 13:02 22.65612 113.78012 15 ft 10 kts 332°
2026-04-29 13:03 22.65675 113.77974 15 ft 12 kts 333°
2026-04-29 13:03 22.65756 113.77930 15 ft 14 kts 333°
2026-04-29 13:03 22.65851 113.77877 15 ft 16 kts 332°
2026-04-29 13:03 22.65948 113.77821 15 ft 11 kts 327°
2026-04-29 13:04 22.66026 113.77806 15 ft 13 kts 14°
2026-04-29 13:04 22.66120 113.77833 15 ft 15 kts 15°
2026-04-29 13:04 22.66196 113.77911 15 ft 17 kts 63°
2026-04-29 13:04 22.66252 113.78029 15 ft 19 kts 62°
2026-04-29 13:05 22.66314 113.78160 15 ft 20 kts 63°
2026-04-29 13:05 22.66361 113.78283 15 ft 15 kts 95°
2026-04-29 13:05 22.66279 113.78355 15 ft 17 kts 153°
2026-04-29 13:05 22.66151 113.78426 15 ft 24 kts 153°
2026-04-29 13:06 22.66004 113.78507 15 ft 23 kts 155°
2026-04-29 13:06 22.65861 113.78580 15 ft 22 kts 152°
2026-04-29 13:06 22.65725 113.78658 15 ft 22 kts 152°
2026-04-29 13:06 22.65594 113.78735 15 ft 21 kts 151°
2026-04-29 13:07 22.65466 113.78803 15 ft 20 kts 155°
2026-04-29 13:07 22.65340 113.78870 15 ft 20 kts 153°
2026-04-29 13:07 22.65218 113.78937 15 ft 19 kts 154°
2026-04-29 13:07 22.65100 113.79001 15 ft 19 kts 153°
2026-04-29 13:08 22.64986 113.79063 15 ft 19 kts 153°
2026-04-29 13:08 22.64863 113.79131 15 ft 21 kts 152°
2026-04-29 13:08 22.64724 113.79210 15 ft 24 kts 153°
2026-04-29 13:08 22.64578 113.79289 16 ft 23 kts 153°
2026-04-29 13:09 22.64479 113.79344 15 ft 13 kts 153°
2026-04-29 13:09 22.64454 113.79417 15 ft 12 kts 65°
2026-04-29 13:09 22.64493 113.79498 15 ft 12 kts 62°
2026-04-29 13:09 22.64532 113.79576 15 ft 12 kts 61°
2026-04-29 13:10 22.64567 113.79652 15 ft 11 kts 64°
2026-04-29 13:10 22.64597 113.79720 15 ft 5 kts 82°
2026-04-29 13:10 22.64567 113.79744 15 ft 6 kts 155°
2026-04-29 13:10 22.64535 113.79768 16 ft 6 kts 133°
2026-04-29 13:11 22.64512 113.79812 17 ft 7 kts 117°
2026-04-29 13:11 22.64504 113.79862 14 ft 7 kts 81°
2026-04-29 13:11 22.64534 113.79907 26 ft 8 kts 49°
2026-04-29 13:11 22.64544 113.79961 15 ft 7 kts 91°
2026-04-29 13:12 22.64546 113.80002 14 ft 0 kts 74°